Location: Austin
(30.3000°N, 97.7500°W)
Time: 03:06:26
(UTC-05:00)

Lacrosse 5 - Pass Details

Date: 01 October 2024
Orbit: 714 x 724 km, 57.0° (Epoch: 09 March)

Event Time Altitude Azimuth Distance (km) Brightness Sun altitude
Rises 19:40:54 0° 209° (SSW) 3,121 5.6 -6.3°
Reaches altitude 10° 19:43:17 10° 206° (SSW) 2,202 4.8 -6.8°
Maximum altitude 19:48:19 68° 125° (SE) 778 1.9 -7.9°
Drops below altitude 10° 19:53:22 10° 43° (NE) 2,209 4.0 -9.0°
Sets 19:55:46 0° 40° (NE) 3,130 4.8 -9.5°
